Lexington Weather

Lexington, Massachusetts, USA

40°F
11/27/2020 3:06am 
  • Lexington Conditions: Fog, Overcast
  • Temperature: 40.3°F / 4.6°CWarmer 0.2°F than last hour.
  • Dew Point: 39.6°FIncreased 0.2°Fsince last hour.
  • Relative Humidity: 97
  • Wind: Calm, 10-min avg: Calm, gust: None
  • Barometer: 29.97 in Steady
  • Visibility: ¼ mile
  • Rain Today: 0.00 in
  •   
Southeast Middlesex County - Special Weather Statement
 - SEE ALL NEARBY ALERTS -

Regional Weather Roundup
for Boston / Norton, MA

        
000
ASUS41 KBOX 241604
RWRBOX

REGIONAL WEATHER ROUNDUP
NATIONAL WEATHER SERVICE BOSTON/NORTON MA
1100 AM EST TUE NOV 24 2020

NOTE:  "FAIR" INDICATES FEW OR NO CLOUDS BELOW 12,000 FEET WITH NO 
SIGNIFICANT WEATHER AND/OR OBSTRUCTIONS TO VISIBILITY.

MAZALL-241700-
EASTERN MASSACHUSETTS
  
CITY           SKY/WX    TMP DP  RH WIND       PRES   REMARKS
BOSTON         MOSUNNY   41  23  48 NW13      30.26S                  
BEVERLY        MOSUNNY   42  23  46 NW14G23   30.23S                  
LAWRENCE       SUNNY     40  23  50 NW12      30.26R                  
BEDFORD        PTSUNNY   43  22  43 NW14G21   30.25R                  
BLUE HILL        N/A     39  24  55 NW12G23   30.22S WCI  32          
NORWOOD        PTSUNNY   43  24  47 NW13      30.26S                  
MARSHFIELD     MOSUNNY   45  25  45 NW14G22   30.24F                  
PLYMOUTH       MOSUNNY   42  24  49 W17G23    30.24S                  
TAUNTON        PTSUNNY   43  23  45 NW8G16    30.27R                  
NEW BEDFORD    SUNNY     43  25  49 NW9G23    30.26R                  
$$

MAZALL-241700-
CAPE COD AND THE ISLANDS
  
CITY           SKY/WX    TMP DP  RH WIND       PRES   REMARKS
FALMOUTH       SUNNY     41  23  48 NW16G28   30.24S                  
HYANNIS        SUNNY     44  25  47 NW14G23   30.21S                  
CHATHAM        SUNNY     44  26  49 NW9G20    30.23S                  
PROVINCETOWN   MOSUNNY   43  25  49 NW18G30   30.25R                  
NANTUCKET      SUNNY     45  27  49 NW20G29   30.24R                  
MARTHAS VNYRD  SUNNY     44  25  47 NW15G23   30.26R                  
$$
 
MAZALL-241700-
CENTRAL AND WESTERN MASSACHUSETTS
  
CITY           SKY/WX    TMP DP  RH WIND       PRES   REMARKS
WORCESTER      SUNNY     38  20  48 W14       30.24R WCI  30          
FITCHBURG      MOSUNNY   40  21  46 NW14G24   30.27R                  
ORANGE         MOSUNNY   40  21  46 NW16G23   30.27R WCI  31          
SPRINGFIELD    NOT AVBL                                               
WESTFIELD      PTSUNNY   43  24  47 NW13      30.29S                  
NORTH ADAMS    PTSUNNY   37  21  52 W12G20    30.29S WCI  29          
PITTSFIELD     PTSUNNY   37  22  54 NW10G18   30.26S WCI  30          
$$
 
RIZALL-241700-
RHODE ISLAND
  
CITY           SKY/WX    TMP DP  RH WIND       PRES   REMARKS
PROVIDENCE     MOSUNNY   43  24  47 NW14      30.28S                  
NEWPORT        MOSUNNY   42  26  53 NW12G18   30.27S                  
BLOCK ISLAND   MOSUNNY   42  26  53 NW10      30.30S                  
SMITHFIELD     PTSUNNY   41  24  51 NW12      30.27R                  
WESTERLY       SUNNY     44  24  45 NW10G17   30.29F                  
$$
 
CTZALL-241700-
CONNECTICUT
  
CITY           SKY/WX    TMP DP  RH WIND       PRES   REMARKS
BRADLEY INTL   PTSUNNY   43  23  45 W12       30.30S                  
HARTFORD       MOSUNNY   44  22  41 NW8G17    30.32S                  
BRIDGEPORT     SUNNY     47  26  44 NW14      30.32F                  
DANBURY        MOSUNNY   43  25  49 N12       30.33S                  
GROTON         SUNNY     45  24  43 NW16G24   30.30F                  
NEW HAVEN      MOSUNNY   46  25  43 NW13G22   30.32S                  
CHESTER        FAIR      43  21  42 NW10G18   30.29F                  
MERIDEN        MOSUNNY   44  22  41 NW14G24   30.32S                  
WILLIMANTIC    MOSUNNY   42  24  49 NW8G20    30.30S                  
OXFORD         MOSUNNY   41  24  51 NW15      30.31S                  
$$

MEZ002-015-021-024-NHZ003-005-008-011-012-014-VTZ005-008-241700-
NORTHERN NEW ENGLAND
  
CITY           SKY/WX    TMP DP  RH WIND       PRES   REMARKS
PORTLAND ME    MOSUNNY   38  20  48 NW14      30.19R WCI  30          
BANGOR ME      MOSUNNY   32  13  45 NW25G33   30.12R WCI  19          
CONCORD NH     SUNNY     38  18  44 NW9G26    30.25R WCI  31          
MANCHESTER NH  PTSUNNY   40  20  44 NW13      30.23S                  
NASHUA NH      MOSUNNY   40  19  43 NW14G22   30.26R                  
PORTSMOUTH NH  MOSUNNY   41  17  37 W13G20    30.21R                  
JAFFREY NH     SUNNY     37  18  46 NW9G21    30.23S WCI  30          
KEENE NH       MOSUNNY   38  21  50 NW14      30.27R WCI  30          
BURLINGTON VT  FLURRIES  28  14  55 NW15G23   30.36R WCI  16          
MT. WASHINGTON FOG        1  -2  85 N72G78      N/A  VSB 1/4 WCI -33  
$$

NYZ052-076-241700-
EASTERN NEW YORK
  
CITY           SKY/WX    TMP DP  RH WIND       PRES   REMARKS
ALBANY         MOSUNNY   38  20  48 NW16      30.33S WCI  29          
NEW YORK CITY  MOSUNNY   47  25  42 NW16      30.35R                  
$$
 
ANZALL-241700-
MARINE OBSERVATIONS
  
STATION/POSITION TIME  TEMP    WIND        PRES    VSBY  WAVE
                       AIR SEA DIR/SP/G                  HT/PER
                 (UTC) (F)     (DEG/KT/KT) (MB)    (MI)  (FT/S)
BOSTON BUOY      1540   41 51  300/ 16/ 19 1024.8R
BUZZARDS BAY     1500          310/ 21/ 23 1025.7R
NANTUCKET SOUND  1540      51  320/ 19/ 23   N/A
MASS BAY-STELLWA NOT AVBL
ISLE OF SHOALS   1500   38     290/ 24/ 26 1022.5R
S OF BLOCK IS    1526      57                N/A           5/ 5
$$

......................KEY.........................
  SKY/WX - SKY CONDITION/PRESENT WEATHER
  TMP    - TEMPERATURE IN FAHRENHEIT
  DWPT   - DEWPOINT IN FAHRENHEIT
  RH     - RELATIVE HUMIDITY IN PERCENT
  WIND   - DIRECTION AND SPEED IN MPH
  PRES   - MEAN SEA LEVEL PRESSURE IN INCHES OF HG
  WCI    - WIND CHILL INDEX
  VSB    - VISIBILITY IN MILES
  HX     - HEAT INDEX
  TC     - TEMPERATURE IN CELSIUS
  VRB    - VARIABLE WIND DIRECTION
  N/A    - NOT AVAILABLE
  
      

Other recent Regional Weather Roundups

Thu Nov 26, 11:04pm

Thu Nov 26, 10:04pm

Thu Nov 26, 9:04pm

Thu Nov 26, 8:04pm

Thu Nov 26, 7:04pm

Thu Nov 26, 6:04pm

Thu Nov 26, 5:04pm

Thu Nov 26, 4:04pm

Thu Nov 26, 2:04pm

Thu Nov 26, 1:04pm

Thu Nov 26, 12:04pm

Thu Nov 26, 11:04am

Thu Nov 26, 10:04am

Thu Nov 26, 9:04am

Thu Nov 26, 8:04am

Thu Nov 26, 7:04am

Thu Nov 26, 6:04am

Thu Nov 26, 5:04am

Thu Nov 26, 4:04am

Thu Nov 26, 3:04am

Thu Nov 26, 2:04am

Thu Nov 26, 1:04am

Thu Nov 26, 12:04am

Wed Nov 25, 11:04pm

Wed Nov 25, 10:04pm

Wed Nov 25, 9:04pm

Wed Nov 25, 8:04pm

Wed Nov 25, 7:04pm

Wed Nov 25, 6:04pm

Wed Nov 25, 5:04pm

Wed Nov 25, 4:04pm

Wed Nov 25, 3:05pm

Wed Nov 25, 2:04pm

Wed Nov 25, 1:04pm

Wed Nov 25, 12:05pm

Wed Nov 25, 11:04am

Wed Nov 25, 10:04am

Wed Nov 25, 9:04am

Wed Nov 25, 8:04am

Wed Nov 25, 7:04am

Wed Nov 25, 6:04am

Wed Nov 25, 5:04am

Wed Nov 25, 4:04am

Wed Nov 25, 3:04am

Wed Nov 25, 2:04am

Wed Nov 25, 1:04am

Wed Nov 25, 12:04am

Tue Nov 24, 11:04pm

Tue Nov 24, 10:04pm

Tue Nov 24, 9:04pm

Tue Nov 24, 8:04pm

Tue Nov 24, 7:04pm

Tue Nov 24, 6:04pm

Tue Nov 24, 5:04pm

Tue Nov 24, 4:05pm

Tue Nov 24, 3:05pm

Tue Nov 24, 2:05pm

Tue Nov 24, 1:05pm

Tue Nov 24, 12:04pm

Tue Nov 24, 10:04am

Tue Nov 24, 9:04am

Tue Nov 24, 8:04am

Tue Nov 24, 7:04am

Tue Nov 24, 6:04am

Tue Nov 24, 5:04am

Tue Nov 24, 4:05am

Tue Nov 24, 3:04am

Tue Nov 24, 2:04am

Tue Nov 24, 1:04am

Tue Nov 24, 12:05am

Mon Nov 23, 11:04pm

Mon Nov 23, 10:04pm

Mon Nov 23, 9:04pm

Mon Nov 23, 8:04pm

Mon Nov 23, 7:04pm

Mon Nov 23, 6:04pm

Mon Nov 23, 5:04pm

Mon Nov 23, 4:04pm

Mon Nov 23, 3:04pm

Mon Nov 23, 2:04pm

Mon Nov 23, 1:04pm

Mon Nov 23, 12:04pm

Mon Nov 23, 11:04am

Mon Nov 23, 10:04am

Mon Nov 23, 9:04am

Mon Nov 23, 8:05am

Mon Nov 23, 7:04am

Mon Nov 23, 6:04am

Mon Nov 23, 5:04am

Mon Nov 23, 4:04am

Mon Nov 23, 3:04am

Mon Nov 23, 2:04am

Mon Nov 23, 1:04am

Mon Nov 23, 12:05am

Sun Nov 22, 11:04pm

Sun Nov 22, 10:04pm

Sun Nov 22, 9:04pm

Sun Nov 22, 8:05pm

Sun Nov 22, 7:04pm

Sun Nov 22, 6:04pm

Sun Nov 22, 5:04pm

Sun Nov 22, 4:04pm

Sun Nov 22, 3:04pm

Sun Nov 22, 2:04pm

Sun Nov 22, 1:05pm

Sun Nov 22, 12:04pm

Sun Nov 22, 11:04am

Sun Nov 22, 10:05am

Sun Nov 22, 9:04am

Sun Nov 22, 8:04am

Sun Nov 22, 7:04am

Sun Nov 22, 6:04am

Sun Nov 22, 5:04am

Sun Nov 22, 4:04am

Sun Nov 22, 3:04am

Sun Nov 22, 2:04am

Sun Nov 22, 1:04am

Sun Nov 22, 12:04am

Sat Nov 21, 11:04pm

Sat Nov 21, 10:04pm

Sat Nov 21, 9:04pm

Sat Nov 21, 8:05pm

Sat Nov 21, 7:04pm

Sat Nov 21, 6:04pm

Sat Nov 21, 5:04pm

Sat Nov 21, 4:05pm

Sat Nov 21, 3:04pm

Sat Nov 21, 2:04pm

Sat Nov 21, 1:05pm

Sat Nov 21, 12:04pm

Sat Nov 21, 11:04am

Sat Nov 21, 10:04am

Sat Nov 21, 9:04am

Sat Nov 21, 8:04am

Sat Nov 21, 7:04am

Sat Nov 21, 6:04am

Sat Nov 21, 5:04am

Sat Nov 21, 4:04am

Sat Nov 21, 3:04am

Sat Nov 21, 2:04am

Sat Nov 21, 1:04am

Sat Nov 21, 12:04am

Fri Nov 20, 11:04pm

Fri Nov 20, 10:04pm

Fri Nov 20, 9:04pm

Fri Nov 20, 8:04pm

Fri Nov 20, 7:04pm

Fri Nov 20, 6:04pm

Fri Nov 20, 5:04pm

Fri Nov 20, 4:05pm

Fri Nov 20, 3:05pm

Fri Nov 20, 2:04pm

Fri Nov 20, 1:04pm

Fri Nov 20, 12:04pm

Fri Nov 20, 11:04am

Fri Nov 20, 10:04am

Fri Nov 20, 9:04am

Fri Nov 20, 8:04am

Fri Nov 20, 7:04am

Fri Nov 20, 6:04am

Fri Nov 20, 5:04am

Fri Nov 20, 4:04am

Fri Nov 20, 3:04am

Meta data:

ID: 16be55d0-1be5-4eb6-ac06-3c0eee556782
Link: https://api.weather.gov/products/16be55d0-1be5-4eb6-ac06-3c0eee556782